Time,TemperatureF,DewpointF,PressureIn,WindDirection,WindDirectionDegrees,WindSpeedMPH,WindSpeedGustMPH,Humidity,HourlyPrecipIn,Conditions,Clouds,dailyrainin,SoftwareType,DateUTC
2014-01-22 00:05:00,6.6,-2.0,30.25,NE,56,0.0,2.0,68,0.00,,,0.00,weatherlink.com 1.10,2014-01-22 05:05:00,
2014-01-22 00:20:00,6.3,-2.0,30.25,NE,56,0.0,2.0,69,0.00,,,0.00,weatherlink.com 1.10,2014-01-22 05:20:00,
2014-01-22 00:35:00,6.2,-2.0,30.24,NE,56,0.0,1.0,70,0.00,,,0.00,weatherlink.com 1.10,2014-01-22 05:35:00,
2014-01-22 00:50:00,6.0,-1.0,30.24,ENE,63,1.0,3.0,73,0.00,,,0.00,weatherlink.com 1.10,2014-01-22 05:50:00,
2014-01-22 01:05:00,6.0,-2.0,30.24,NE,42,0.0,3.0,71,0.00,,,0.00,weatherlink.com 1.10,2014-01-22 06:05:00,
2014-01-22 01:20:00,6.1,-1.0,30.23,NE,56,0.0,2.0,72,0.00,,,0.00,weatherlink.com 1.10,2014-01-22 06:20:00,
2014-01-22 01:35:00,5.8,-1.0,30.23,NE,49,0.0,0.0,73,0.00,,,0.00,weatherlink.com 1.10,2014-01-22 06:35:00,
2014-01-22 01:50:00,5.3,-1.0,30.24,West,278,0.0,2.0,75,0.00,,,0.00,weatherlink.com 1.10,2014-01-22 06:50:00,
2014-01-22 02:05:00,5.0,-1.0,30.24,West,278,0.0,0.0,75,0.00,,,0.00,weatherlink.com 1.10,2014-01-22 07:05:00,
2014-01-22 02:20:00,5.0,-1.0,30.24,West,278,0.0,0.0,75,0.00,,,0.00,weatherlink.com 1.10,2014-01-22 07:20:00,
2014-01-22 02:35:00,4.8,-2.0,30.24,West,278,0.0,0.0,75,0.00,,,0.00,weatherlink.com 1.10,2014-01-22 07:35:00,
2014-01-22 02:50:00,4.7,-1.0,30.25,West,278,0.0,0.0,76,0.00,,,0.00,weatherlink.com 1.10,2014-01-22 07:50:00,
2014-01-22 03:05:00,4.6,-1.0,30.25,North,5,0.0,1.0,76,0.00,,,0.00,weatherlink.com 1.10,2014-01-22 08:05:00,
2014-01-22 03:21:00,4.7,-2.0,30.26,North,5,0.0,1.0,75,0.00,,,0.00,weatherlink.com 1.10,2014-01-22 08:21:00,
2014-01-22 03:36:00,4.4,-2.0,30.25,North,5,0.0,0.0,74,0.00,,,0.00,weatherlink.com 1.10,2014-01-22 08:36:00,
2014-01-22 03:51:00,4.1,-2.0,30.25,North,5,0.0,1.0,75,0.00,,,0.00,weatherlink.com 1.10,2014-01-22 08:51:00,
2014-01-22 04:06:00,3.3,-2.0,30.25,North,5,0.0,1.0,80,0.00,,,0.00,weatherlink.com 1.10,2014-01-22 09:06:00,
2014-01-22 04:21:00,2.7,-2.0,30.24,North,5,0.0,0.0,82,0.00,,,0.00,weatherlink.com 1.10,2014-01-22 09:21:00,
2014-01-22 04:36:00,2.7,-1.0,30.24,North,5,0.0,0.0,83,0.00,,,0.00,weatherlink.com 1.10,2014-01-22 09:36:00,
2014-01-22 04:51:00,2.6,-1.0,30.24,North,5,0.0,0.0,83,0.00,,,0.00,weatherlink.com 1.10,2014-01-22 09:51:00,
2014-01-22 05:06:00,2.7,-1.0,30.24,North,5,0.0,0.0,83,0.00,,,0.00,weatherlink.com 1.10,2014-01-22 10:06:00,
2014-01-22 05:21:00,2.7,-1.0,30.23,North,5,0.0,1.0,84,0.00,,,0.00,weatherlink.com 1.10,2014-01-22 10:21:00,
2014-01-22 05:36:00,2.9,-1.0,30.23,North,5,0.0,1.0,84,0.00,,,0.00,weatherlink.com 1.10,2014-01-22 10:36:00,
2014-01-22 05:51:00,2.1,-2.0,30.23,North,5,0.0,0.0,83,0.00,,,0.00,weatherlink.com 1.10,2014-01-22 10:51:00,
2014-01-22 06:06:00,1.5,-2.0,30.22,North,5,0.0,0.0,84,0.00,,,0.00,weatherlink.com 1.10,2014-01-22 11:06:00,
2014-01-22 06:21:00,1.3,-2.0,30.23,North,5,0.0,0.0,86,0.00,,,0.00,weatherlink.com 1.10,2014-01-22 11:21:00,
2014-01-22 06:37:00,1.1,-2.0,30.23,North,5,0.0,0.0,87,0.00,,,0.00,weatherlink.com 1.10,2014-01-22 11:37:00,
2014-01-22 06:52:00,0.9,-2.0,30.23,North,5,0.0,0.0,86,0.00,,,0.00,weatherlink.com 1.10,2014-01-22 11:52:00,
2014-01-22 07:07:00,0.3,-3.0,30.23,North,5,0.0,0.0,86,0.00,,,0.00,weatherlink.com 1.10,2014-01-22 12:07:00,
2014-01-22 07:22:00,0.1,-3.0,30.24,North,5,0.0,0.0,87,0.00,,,0.00,weatherlink.com 1.10,2014-01-22 12:22:00,
2014-01-22 07:37:00,0.1,-3.0,30.23,North,5,0.0,0.0,87,0.00,,,0.00,weatherlink.com 1.10,2014-01-22 12:37:00,
2014-01-22 07:52:00,0.0,-3.0,30.23,North,5,0.0,0.0,87,0.00,,,0.00,weatherlink.com 1.10,2014-01-22 12:52:00,
2014-01-22 08:07:00,0.0,-3.0,30.23,North,5,0.0,0.0,87,0.00,,,0.00,weatherlink.com 1.10,2014-01-22 13:07:00,
2014-01-22 08:22:00,0.8,-2.0,30.24,North,5,0.0,0.0,88,0.00,,,0.00,weatherlink.com 1.10,2014-01-22 13:22:00,
2014-01-22 08:37:00,1.5,-1.0,30.23,North,5,0.0,1.0,88,0.00,,,0.00,weatherlink.com 1.10,2014-01-22 13:37:00,
2014-01-22 08:52:00,2.4,0.0,30.23,NW,313,0.0,3.0,88,0.00,,,0.00,weatherlink.com 1.10,2014-01-22 13:52:00,
2014-01-22 09:07:00,3.5,1.0,30.23,NW,321,0.0,3.0,89,0.00,,,0.00,weatherlink.com 1.10,2014-01-22 14:07:00,
2014-01-22 09:22:00,4.1,1.0,30.24,NNW,337,1.0,3.0,88,0.00,,,0.00,weatherlink.com 1.10,2014-01-22 14:22:00,
2014-01-22 09:37:00,4.9,2.0,30.24,NW,311,1.0,3.0,86,0.00,,,0.00,weatherlink.com 1.10,2014-01-22 14:37:00,
2014-01-22 09:53:00,5.4,2.0,30.23,SW,235,0.0,3.0,84,0.00,,,0.00,weatherlink.com 1.10,2014-01-22 14:53:00,
2014-01-22 10:08:00,6.0,2.0,30.22,NW,310,2.0,2.0,84,0.00,,,0.00,weatherlink.com 1.10,2014-01-22 15:08:00,
2014-01-22 10:23:00,6.9,2.0,30.22,NW,312,0.0,4.0,81,0.00,,,0.00,weatherlink.com 1.10,2014-01-22 15:23:00,
2014-01-22 10:38:00,8.0,2.0,30.22,NW,323,0.0,4.0,77,0.00,,,0.00,weatherlink.com 1.10,2014-01-22 15:38:00,
2014-01-22 10:53:00,9.0,3.0,30.21,NW,309,1.0,3.0,75,0.00,,,0.00,weatherlink.com 1.10,2014-01-22 15:53:00,
2014-01-22 11:08:00,9.5,3.0,30.22,WSW,255,0.0,4.0,73,0.00,,,0.00,weatherlink.com 1.10,2014-01-22 16:08:00,
2014-01-22 11:23:00,10.3,3.0,30.21,NW,316,2.0,4.0,72,0.00,,,0.00,weatherlink.com 1.10,2014-01-22 16:23:00,
2014-01-22 11:38:00,11.2,3.0,30.20,NW,322,1.0,5.0,70,0.00,,,0.00,weatherlink.com 1.10,2014-01-22 16:38:00,
2014-01-22 11:53:00,11.7,2.0,30.19,NW,317,2.0,5.0,66,0.00,,,0.00,weatherlink.com 1.10,2014-01-22 16:53:00,
2014-01-22 12:08:00,12.1,2.0,30.18,NW,304,2.0,6.0,65,0.00,,,0.00,weatherlink.com 1.10,2014-01-22 17:08:00,
2014-01-22 12:23:00,12.3,3.0,30.17,West,267,4.0,6.0,65,0.00,,,0.00,weatherlink.com 1.10,2014-01-22 17:23:00,
2014-01-22 12:38:00,12.9,3.0,30.16,WNW,290,0.0,5.0,64,0.00,,,0.00,weatherlink.com 1.10,2014-01-22 17:38:00,
2014-01-22 12:53:00,13.2,2.0,30.15,WNW,301,0.0,4.0,62,0.00,,,0.00,weatherlink.com 1.10,2014-01-22 17:53:00,
2014-01-22 13:08:00,13.1,2.0,30.15,SW,221,1.0,5.0,62,0.00,,,0.00,weatherlink.com 1.10,2014-01-22 18:08:00,
2014-01-22 13:24:00,12.9,2.0,30.15,West,267,1.0,4.0,63,0.00,,,0.00,weatherlink.com 1.10,2014-01-22 18:24:00,
2014-01-22 13:39:00,12.9,2.0,30.14,SSW,213,2.0,5.0,63,0.00,,,0.00,weatherlink.com 1.10,2014-01-22 18:39:00,
2014-01-22 13:54:00,13.2,3.0,30.13,SW,236,1.0,4.0,65,0.00,,,0.00,weatherlink.com 1.10,2014-01-22 18:54:00,
2014-01-22 14:09:00,13.7,4.0,30.12,SSW,203,3.0,5.0,65,0.00,,,0.00,weatherlink.com 1.10,2014-01-22 19:09:00,
2014-01-22 14:24:00,14.2,4.0,30.11,SSW,211,3.0,7.0,64,0.00,,,0.00,weatherlink.com 1.10,2014-01-22 19:24:00,
2014-01-22 14:39:00,14.8,5.0,30.11,WNW,284,1.0,4.0,64,0.00,,,0.00,weatherlink.com 1.10,2014-01-22 19:39:00,
2014-01-22 14:54:00,15.1,5.0,30.11,WNW,286,3.0,5.0,65,0.00,,,0.00,weatherlink.com 1.10,2014-01-22 19:54:00,
2014-01-22 15:09:00,15.0,4.0,30.11,WNW,303,1.0,7.0,63,0.00,,,0.00,weatherlink.com 1.10,2014-01-22 20:09:00,
2014-01-22 15:24:00,15.4,5.0,30.11,WNW,292,2.0,5.0,63,0.00,,,0.00,weatherlink.com 1.10,2014-01-22 20:24:00,
2014-01-22 15:39:00,15.4,5.0,30.10,WSW,246,1.0,4.0,63,0.00,,,0.00,weatherlink.com 1.10,2014-01-22 20:39:00,
2014-01-22 15:54:00,15.4,4.0,30.11,WNW,300,6.0,6.0,62,0.00,,,0.00,weatherlink.com 1.10,2014-01-22 20:54:00,
2014-01-22 16:09:00,15.3,5.0,30.11,NW,304,1.0,5.0,63,0.00,,,0.00,weatherlink.com 1.10,2014-01-22 21:09:00,
2014-01-22 16:24:00,15.2,5.0,30.11,NNW,331,0.0,5.0,63,0.00,,,0.00,weatherlink.com 1.10,2014-01-22 21:24:00,
2014-01-22 16:39:00,15.3,5.0,30.11,NW,320,2.0,4.0,65,0.00,,,0.00,weatherlink.com 1.10,2014-01-22 21:39:00,
2014-01-22 16:54:00,15.2,5.0,30.11,NNW,329,5.0,10.0,63,0.00,,,0.00,weatherlink.com 1.10,2014-01-22 21:54:00,
2014-01-22 17:09:00,14.9,5.0,30.11,NW,315,2.0,8.0,64,0.00,,,0.00,weatherlink.com 1.10,2014-01-22 22:09:00,
2014-01-22 17:24:00,14.8,6.0,30.11,NW,319,1.0,9.0,67,0.00,,,0.00,weatherlink.com 1.10,2014-01-22 22:24:00,
2014-01-22 17:39:00,14.4,7.0,30.12,NNW,329,0.0,8.0,72,0.00,,,0.00,weatherlink.com 1.10,2014-01-22 22:39:00,
2014-01-22 17:55:00,14.1,8.0,30.12,West,275,7.0,7.0,76,0.00,,,0.00,weatherlink.com 1.10,2014-01-22 22:55:00,
2014-01-22 18:10:00,14.0,8.0,30.12,NNW,338,2.0,5.0,78,0.00,,,0.00,weatherlink.com 1.10,2014-01-22 23:10:00,
2014-01-22 18:25:00,14.0,9.0,30.13,NNW,338,1.0,5.0,79,0.00,,,0.00,weatherlink.com 1.10,2014-01-22 23:25:00,
2014-01-22 18:40:00,14.0,9.0,30.14,NW,312,0.0,3.0,80,0.00,,,0.00,weatherlink.com 1.10,2014-01-22 23:40:00,
2014-01-22 18:55:00,14.0,9.0,30.14,West,271,0.0,6.0,81,0.00,,,0.00,weatherlink.com 1.10,2014-01-22 23:55:00,
2014-01-22 19:10:00,14.1,10.0,30.14,NNW,327,0.0,2.0,83,0.00,,,0.00,weatherlink.com 1.10,2014-01-23 00:10:00,
2014-01-22 19:25:00,14.1,10.0,30.14,WNW,294,0.0,3.0,83,0.00,,,0.00,weatherlink.com 1.10,2014-01-23 00:25:00,
2014-01-22 19:40:00,14.0,10.0,30.14,NW,309,0.0,2.0,85,0.00,,,0.00,weatherlink.com 1.10,2014-01-23 00:40:00,
2014-01-22 21:25:00,14.3,11.0,30.12,NW,313,0.0,4.0,87,0.00,,,0.00,weatherlink.com 1.10,2014-01-23 02:25:00,
2014-01-22 21:40:00,14.6,11.0,30.11,NNW,329,0.0,4.0,87,0.00,,,0.00,weatherlink.com 1.10,2014-01-23 02:40:00,
2014-01-22 21:55:00,14.8,12.0,30.11,NW,313,2.0,4.0,87,0.00,,,0.00,weatherlink.com 1.10,2014-01-23 02:55:00,
2014-01-22 22:10:00,15.1,12.0,30.12,NW,311,2.0,5.0,87,0.00,,,0.00,weatherlink.com 1.10,2014-01-23 03:10:00,
2014-01-22 22:25:00,15.5,13.0,30.12,NNW,338,1.0,5.0,88,0.00,,,0.00,weatherlink.com 1.10,2014-01-23 03:25:00,
2014-01-22 22:40:00,16.0,13.0,30.11,NW,325,0.0,5.0,88,0.00,,,0.00,weatherlink.com 1.10,2014-01-23 03:40:00,
2014-01-22 22:55:00,16.3,13.0,30.12,NW,323,2.0,5.0,87,0.00,,,0.00,weatherlink.com 1.10,2014-01-23 03:55:00,
2014-01-22 23:10:00,16.6,13.0,30.12,North,355,1.0,10.0,87,0.00,,,0.00,weatherlink.com 1.10,2014-01-23 04:10:00,
2014-01-22 23:25:00,16.8,14.0,30.11,NW,323,3.0,6.0,88,0.00,,,0.00,weatherlink.com 1.10,2014-01-23 04:25:00,
2014-01-22 23:40:00,17.2,15.0,30.12,WNW,285,4.0,8.0,89,0.00,,,0.00,weatherlink.com 1.10,2014-01-23 04:40:00,
2014-01-22 23:55:00,17.2,15.0,30.11,NW,319,2.0,6.0,89,0.00,,,0.00,weatherlink.com 1.10,2014-01-23 04:55:00,